Flag for Germany Weather past 2 weeks in Gerolstein, Rhineland-Palatinate, Germany

Now
44 °F

Low clouds.


Feels Like: 41 °F
Forecast: 44 / 48 °F
Wind: 6 mph from Southwest

Location: Nuerburg-Barweiler

Current Time: Mar 28, 2015 at 6:53:50 PM

Latest Report: Mar 28, 2015 at 6:00 PM


Visibility: 14 mi

Pressure: 29.98 "Hg

Humidity: 91%

Dew point: 42 °F

Location of GerolsteinLocation

Historic Weather in Gerolstein — Graph

°F

Gerolstein temperature yesterday

Maximum temperature yesterday: 44 °F (at 5:00 PM)
Minimum temperature yesterday: 35 °F (at 5:00 AM)
Average temperature yesterday: 39 °F

Past Weeks' High & Low Weather Summary

 TemperatureHumidityPressure
High59 °F (Mar 17, 3:00 PM)100% (Mar 15, 5:00 AM)30.38 "Hg (Mar 15, 5:00 AM)
Low27 °F (Mar 23, 5:00 AM)41% (Mar 17, 3:00 PM)29.65 "Hg (Mar 25, 3:00 AM)
Average39 °F82%30.13 "Hg
* Reported Mar 13 5:00 PM — Mar 28 5:00 PM, Gerolstein, Weather by CustomWeather, © 2015

Note: Actual official high and low records may vary slightly from our data, if they occured in-between our weather recording intervals... More about our weather records

Advertising

Gerolstein weather history for previous 24 hours

 ConditionsComfort  
Time TempWeatherWind HumidityBarometerVisibility
5:00 PM
Sat, Mar 28
44 °FLow clouds.6 mph91%30.00 "Hg8 mi
4:00 PMN/APassing clouds.10 mphN/AN/A22 mi
3:00 PM45 °FOvercast.6 mph81%30.02 "Hg11 mi
2:00 PM45 °FLight rain. Low clouds.6 mph71%30.05 "Hg9 mi
1:00 PM46 °FOvercast.7 mph65%30.07 "Hg19 mi
12:00 PM46 °FOvercast.8 mph64%30.09 "Hg17 mi
11:00 AM45 °FOvercast.8 mph62%30.12 "Hg22 mi
9:00 AM43 °FScattered clouds.5 mph62%30.16 "Hg22 mi
8:00 AM40 °FPassing clouds.2 mph70%30.19 "Hg25 mi
7:00 AM37 °FPartly sunny.2 mph74%30.21 "Hg25 mi
6:00 AM37 °FOvercast.3 mph73%30.22 "Hg17 mi
5:00 AM35 °FOvercast.1 mph82%30.24 "Hg9 mi
4:00 AMN/APassing clouds.6 mphN/AN/A4 mi
3:00 AM37 °FOvercast.2 mph75%30.25 "Hg12 mi
2:00 AM37 °FPassing clouds.2 mph76%30.26 "Hg11 mi
1:00 AM37 °FOvercast.1 mph78%30.26 "Hg10 mi
12:00 AM37 °FOvercast.2 mph77%30.26 "Hg9 mi
11:00 PM
Fri, Mar 27
37 °FPassing clouds.2 mph78%30.25 "Hg9 mi
10:00 PM39 °FPassing clouds.2 mph74%30.24 "Hg10 mi
9:00 PM41 °FOvercast.5 mph70%30.23 "Hg12 mi
8:00 PM41 °FOvercast.5 mph68%30.22 "Hg14 mi
7:00 PMN/APassing clouds.1 mphN/AN/A2 mi
6:00 PM43 °FOvercast.7 mph60%30.17 "Hg25 mi
Weather by CustomWeather, © 2015

See weather overviewHow to use our weather pages